Weather observations for the past three days for
Bishop, Bishop Airport
Metric (Imperial)
Date Time (pdt) Wind (kph) Vis. (km) Weather Sky Cond. Temperature (ºC) Relative Humidity Wind Chill (°C) Heat Index (°C) Pressure Precipitation (cm)
Air Dwpt 6 hour altimeter (cm) sea level (mb) 1 hr 3 hr 6 hr
Max. Min.
21 08:56 N 17 G 28 16.09 Fair CLR 17.2 -7.2 18% 76.43 1015.2
21 07:56 N 19 G 31 16.09 Fair CLR 15 -7.8 20% 76.4 1014.9
21 06:56 NW 6 16.09 Fair CLR 10.6 -6.1 31% 76.38 1015.1
21 05:56 N 13 16.09 Fair CLR 5.6 -7.2 40% 3 76.33 1014.7
21 04:56 N 15 16.09 Fair CLR 8.9 -8.3 15.6 7.2 29% 7 76.3 1013.3
21 02:56 N 20 16.09 Fair CLR 11.7 -9.4 22% 76.25 1012.4
21 01:56 N 19 16.09 Fair CLR 11.7 -10 21% 76.23 1012.2
21 00:56 N 20 16.09 Fair CLR 13.3 -10 19% 76.2 1011.9
20 23:56 N 24 16.09 Fair CLR 13.9 -8.9 20% 76.15 1011.3
20 22:56 N 31 G 46 16.09 Fair CLR 15.6 -7.2 26.7 15.6 20% 76.1 1010.3
20 21:56 N 24 G 41 16.09 Fair CLR 16.7 -4.4 23% 76.02 1009.3
20 20:56 N 30 G 44 16.09 Fair CLR 17.8 -3.9 23% 75.95 1008.4
20 19:56 N 37 G 56 16.09 Fair and Breezy CLR 20 -1.7 23% 75.82 1006.7
20 18:56 N 31 G 52 16.09 Fair CLR 21.7 -2.2 20% 75.74 1005.9
20 17:56 N 39 G 59 16.09 Fair and Breezy CLR 23.9 -0.6 20% 24 75.69 1005.2
20 16:56 N 24 G 37 16.09 Fair CLR 27.2 -4.4 27.8 23.9 12% 26 75.64 1004.1
20 15:56 Calm 16.09 Fair CLR 26.7 -7.8 10% 26 75.64 1004.4
20 14:56 N 13 G 26 16.09 Fair CLR 27.2 -7.2 10% 26 75.69 1005.0
20 13:56 N 6 16.09 Fair CLR 26.7 -7.2 10% 26 75.74 1005.4
20 12:56 Vrbl 9 G 28 16.09 Fair CLR 25.6 -7.2 11% 25 75.82 1006.0
20 11:56 N 17 G 26 16.09 Fair CLR 25 -7.8 11% 24 75.87 1006.8
20 10:56 N 17 G 33 16.09 Fair CLR 24.4 -6.1 24.4 10 13% 24 75.87 1007.2
20 09:56 N 22 G 41 16.09 Fair CLR 22.8 -5.6 15% 75.9 1007.1
20 08:56 N 26 16.09 Fair CLR 20.6 -3.9 19% 75.9 1007.4
20 07:56 N 31 G 43 16.09 Fair CLR 17.2 -3.3 25% 75.9 1007.3
20 06:56 N 17 16.09 Fair CLR 13.9 -5 27% 75.9 1007.6
20 05:56 N 15 16.09 Fair CLR 10 -5.6 33% 8 75.87 1007.4
20 04:56 N 15 G 33 16.09 Fair CLR 11.7 -5 17.2 11.1 31% 75.84 1006.8
20 03:56 N 19 16.09 Fair CLR 12.2 -5 30% 75.84 1006.6
20 02:56 N 15 16.09 Fair CLR 11.7 -4.4 32% 75.84 1006.6
20 01:56 NW 17 16.09 Fair CLR 14.4 -3.3 29% 75.87 1006.8
20 00:56 NW 13 G 26 16.09 Fair CLR 16.1 -2.8 27% 75.9 1007.2
19 23:56 N 13 16.09 Fair CLR 16.7 -2.8 26% 75.92 1007.4
19 22:56 NW 9 16.09 Fair CLR 16.1 -2.8 29.4 16.1 27% 75.92 1007.7
19 21:56 N 28 16.09 Fair CLR 20.6 -4.4 18% 75.9 1007.1
19 20:56 N 20 G 33 16.09 Fair CLR 21.1 -2.2 21% 75.84 1006.6
19 19:56 W 26 G 46 16.09 Fair CLR 23.9 -2.2 18% 24 75.79 1006.0
19 18:56 W 30 G 52 16.09 Fair CLR 25.6 -1.7 16% 25 75.77 1006.0
19 17:56 SW 43 G 59 16.09 Fair and Windy CLR 27.8 -2.2 14% 26 75.77 1006.1
19 16:56 W 30 G 46 16.09 Fair CLR 29.4 -3.3 31.1 25.6 12% 28 75.77 1006.1
19 15:56 SW 33 G 50 16.09 Fair and Breezy CLR 30 -7.2 8% 28 75.79 1006.3
19 14:56 SW 24 G 41 16.09 Fair CLR 30 -10.6 6% 28 75.87 1007.0
19 13:56 Vrbl 6 16.09 Fair CLR 28.3 -9.4 8% 27 75.9 1007.8
19 12:56 Vrbl 6 16.09 Fair CLR 28.3 -10 7% 27 76 1008.5
19 11:56 Vrbl 7 16.09 Fair CLR 27.8 -7.8 9% 26 76.05 1009.3
19 10:56 Calm 16.09 Fair CLR 25.6 -2.2 25.6 7.2 16% 25 76.1 1010.1
19 09:56 NW 7 16.09 Fair CLR 23.3 -0.6 20% 76.15 1010.9
19 08:56 Calm 16.09 Fair CLR 20 0.6 27% 76.17 1011.4
19 07:56 NW 13 16.09 Fair CLR 18.3 -0.6 28% 76.2 1011.7
19 06:56 N 7 16.09 Fair CLR 12.8 3.3 53% 76.17 1012.2
19 05:56 W 13 16.09 Fair CLR 8.3 2.8 69% 6 76.12 1012.0
19 04:56 W 9 16.09 Fair CLR 8.3 2.8 16.1 7.2 69% 7 76.12 1011.6
19 03:56 NW 9 16.09 Fair CLR 10 3.3 63% 9 76.1 1010.9
19 02:56 NW 11 16.09 Fair CLR 10 4.4 68% 9 76.1 1010.6
19 01:56 N 9 16.09 Fair CLR 10.6 4.4 66% 76.1 1010.1
19 00:56 NW 11 16.09 Fair CLR 13.9 5 55% 76.1 1009.9
18 23:56 NW 13 16.09 Fair CLR 15 6.1 56% 76.1 1009.9
18 22:56 W 9 16.09 Fair CLR 16.7 5.6 21.7 16.7 48% 76.1 1009.8
18 21:56 W 11 16.09 Fair CLR 17.8 6.7 48% 76.07 1009.6
18 20:56 W 17 16.09 A Few Clouds FEW120 19.4 6.7 44% 76.05 1009.2
18 19:56 NW 19 16.09 Mostly Cloudy BKN100 20 6.7 42% 76.07 1009.7
18 18:56 W 7 16.09 Fair CLR 20.6 8.3 45% 76.02 1009.5
18 17:56 SE 22 G 37 16.09 Light Rain FEW060 BKN090 OVC110 20 7.8 45% 76.05 1010.3
18 16:56 S 19 16.09 Mostly Cloudy BKN110 21.7 6.7 31.7 18.9 38% 76.12 1010.8
18 15:56 E 9 16.09 Overcast OVC100 23.9 3.3 26% 25 76.05 1009.5
18 14:56 Vrbl 7 G 57 16.09 Thunderstorm FEW120 26.1 0.6 19% 26 75.87 1006.8
18 13:56 SW 22 G 33 16.09 Fair CLR 28.9 -1.7 13% 27 75.82 1005.5
18 12:56 S 13 16.09 Fair CLR 28.9 1.1 17% 27 75.84 1005.5
18 11:56 Vrbl 9 G 28 16.09 Fair CLR 30 0 14% 28 75.9 1006.1
18 10:56 NW 9 16.09 Fair CLR 28.9 -0.6 28.9 11.7 15% 27 75.97 1007.0
18 09:56 Calm 16.09 Fair CLR 26.7 -0.6 17% 26 76.02 1007.9
Date Time (pdt) Wind (kph) Vis. (km) Weather Sky Cond. Air Dwpt Max. Min. Relative Humidity Wind Chill (°C) Heat Index (°C) altimeter (cm) sea level (mb) 1 hr 3 hr 6 hr
6 hour
Temperature (ºC) Pressure Precipitation (cm)